User: anonymous   Login
Location: Novo Ouro Preto
(19.8840°S, 43.9844°W)
Time: 08:21:11
(UTC+00:00)
Language:

Cosmos 1844 Rocket - Orbit

View from above orbital plane
View from above orbital plane
View from above satellite
View from above satellite

Ground track
Ground track

The orbit data is extracted from the following two-line orbital elements,

1 17974U 87041B   20329.79597260 +.00000051 +00000-0 +48915-4 0  9996
2 17974 071.0063 142.2293 0016324 274.0826 096.9158 14.17271645734522
Epoch (UTC): 24 November 2020 19:06:12
Eccentricity: 0.0016324
inclination: 71.0063°
perigee height: 823 km
apogee height: 846 km
right ascension of ascending node: 142.2293°
argument of perigee: 274.0826°
revolutions per day: 14.17271645
mean anomaly at epoch: 96.9158°
orbit number at epoch: 73452

The dashed part of the orbit path shows where the satellite is in the earth's shadow,  

DLR